Notices

What's New in latest Release from April 7th, 2021:

- Updated Glossary, including Speed of Maximum Gust, and Total Hourly Precipitation

- Updated national and regional climate services offices contacts and prices information

- Addition of station inventory lists for 1981-2010, 1971-2000, and 1961-1990 Normals.

If you haven't already, please take our survey and provide feedback about our website: https://eccc.sondage-survey.ca/f/LanguageSelection.aspx?s=442ca660-fcf1-47c0-95a9-59707d6fd709

Hourly Data Report for December 18, 2016

CARBERRY CS
MANITOBA

49°54'20.900" N
99°21'26.800" W
383.50 m
5010547
71170
WZE

Download Data

Hourly Data (December 2016)
Hourly Data Report for December 18, 2016
TIME
LST
Temp Definition
°C
Dew Point Definition
°C
Rel Hum Definition
%
Precip. Amount Definition
mm

Wind Dir Definition
10's deg

Wind Spd Definition
km/h
Visibility Definition
km
Stn Press Definition
kPa
Hmdx Definition


Wind Chill Definition


Weather Definition


00:00 -30.9 -34.3 72 0.0 26 17   97.48   -43 LegendNANA
01:00 -32.2 -35.9 70 0.0 21 7   97.43   -40 LegendNANA
02:00 -33.2 -36.5 72 0.0 21 10   97.39   -43 LegendNANA
03:00 -32.6 -36.0 72 0.0 22 8   97.35   -41 LegendNANA
04:00 -31.5 -34.8 73 0.0 23 10   97.32   -41 LegendNANA
05:00 -31.0 -34.2 74 0.0 21 10   97.28   -40 LegendNANA
06:00 -33.0 -36.5 70 0.0 23 4   97.24   -38 LegendNANA
07:00 -32.1 -35.4 72 0.0 22 12   97.21   -43 LegendNANA
08:00 -30.9 -34.2 73 0.0 23 9   97.17   -40 LegendNANA
09:00 -30.3 -33.7 72 0.0 24 8   97.18   -38 LegendNANA
10:00 -29.5 -33.4 69 0.2 25 11   97.22   -39 LegendNANA
11:00 -28.3 -32.6 67 0.0 26 12   97.20   -38 LegendNANA
12:00 -26.3 -30.9 65 0.0 24 9   97.12   -34 LegendNANA
13:00 -24.4 -29.6 62 0.0 24 14   97.09   -34 LegendNANA
14:00 -23.4 -29.0 60 0.0 22 11   97.00   -32 LegendNANA
15:00 -22.9 -28.3 61 0.0 21 11   96.96   -31 LegendNANA
16:00 -23.4 -28.1 66 0.0 20 14   96.91   -33 LegendNANA
17:00 -21.9 -26.3 68 0.0 20 17   96.83   -32 LegendNANA
18:00 -21.1 -25.4 68 0.0 20 15   96.77   -30 LegendNANA
19:00 -20.1 -24.3 69 0.0 18 19   96.66   -30 LegendNANA
20:00 -19.4 -23.4 71 0.0 17 18   96.49   -29 LegendNANA
21:00 -17.9 -21.4 74 0.0 19 18   96.43   -27 LegendNANA
22:00 -14.9 -18.0 77 0.0 19 13   96.31   -22 LegendNANA
23:00 -11.8 -14.8 78 0.0 21 16   96.21   -19 LegendNANA

Notes on Data Quality.

Legend

  • E = Estimated
  • M = Missing
  • NA = Not Available*
  • [empty] = Indicates an unobserved value
Date modified: